GFSSE_925_spd_057.txt.gz
Wind_Speed
17 19 18 16 14 15 17 20 21 22 24 25 25 24 23 21 20 20 18 17 16 13 12 10 10 12 12 13 13 14 15 16 16 17 16 17 17 16 15 15 15 16 14
25 21 19 17 16 15 16 18 19 21 22 23 23 23 21 20 19 19 19 17 16 13 11 10 12 13 13 14 13 14 16 17 18 17 15 15 15 15 15 14 13 15 14
26 22 20 18 16 15 15 17 18 19 19 19 21 21 21 19 18 17 15 16 15 14 13 12 11 12 12 13 15 14 16 16 17 16 14 15 16 14 14 14 14 13 14
24 21 20 18 16 15 15 17 17 17 17 17 17 17 18 16 16 16 15 14 14 14 12 11 11 10 11 13 14 13 17 16 16 14 15 17 18 13 14 13 13 12 13
22 20 19 18 16 14 15 15 15 16 16 16 15 15 15 15 17 15 14 14 13 13 12 11 10 10 10 12 13 15 16 16 16 14 13 14 14 14 14 14 12 12 12
19 17 17 18 17 16 16 16 16 15 15 14 14 14 13 13 12 10 11 13 13 12 12 11 11 11 11 12 13 13 13 11 10 9 9 11 13 12 12 14 11 11 12
21 19 17 17 17 17 16 15 15 15 14 14 13 13 12 12 11 9 8 10 11 11 12 10 11 12 12 12 12 11 10 8 6 8 11 11 11 10 12 12 12 11 10
24 21 19 17 16 16 16 15 15 14 14 14 14 14 12 12 11 10 9 9 10 10 11 11 11 12 12 12 12 11 9 7 5 6 12 11 10 10 12 11 11 10 10
26 24 21 18 17 15 16 16 16 15 16 15 14 14 13 12 11 10 10 9 9 10 11 11 11 12 12 11 11 12 10 7 5 5 10 11 8 10 12 11 11 10 9
11 10 11 13 11 15 17 16 17 15 15 15 15 14 13 12 11 10 9 9 9 9 9 10 11 11 11 11 11 12 11 9 4 1 11 14 10 12 13 12 12 12 11
21 18 18 11 11 15 16 16 17 17 16 16 14 14 13 14 13 11 10 10 9 9 8 9 9 9 9 10 11 11 10 9 7 4 5 11 11 11 12 13 13 12 12
22 21 22 19 15 15 18 17 18 18 18 18 18 17 16 15 15 13 11 11 10 9 9 8 8 8 9 10 10 11 12 11 9 7 4 9 13 9 9 12 13 12 12
23 19 19 16 15 17 18 17 18 19 19 19 18 18 17 16 15 15 13 12 12 10 9 9 9 9 9 10 11 11 11 12 11 10 7 7 12 12 10 11 13 14 13
20 17 11 12 24 21 15 15 16 19 18 21 21 19 19 17 16 17 15 14 13 12 11 10 9 8 8 9 10 10 10 10 10 11 9 9 12 14 12 13 13 14 15
15 12 6 5 15 16 8 14 20 23 19 25 22 21 21 17 16 15 17 13 14 13 12 10 10 9 9 9 10 9 10 11 9 11 12 10 9 15 14 16 13 14 16
17 11 8 5 10 15 15 27 33 26 25 25 23 22 19 18 15 15 18 18 16 14 12 11 10 8 8 10 13 11 13 13 12 13 15 13 13 16 15 16 14 15 16
15 17 10 10 14 9 18 23 29 28 29 29 27 16 15 18 16 15 16 18 16 14 13 13 11 10 9 11 13 12 14 14 12 13 15 17 17 18 17 16 16 15 14
15 13 13 16 10 11 11 16 23 22 19 25 24 26 17 17 15 16 17 17 15 14 14 14 14 15 15 13 14 14 14 13 10 10 12 14 12 18 22 18 20 17 15
17 13 17 12 8 10 9 11 15 16 19 17 11 15 18 16 12 14 16 16 15 14 14 15 15 14 13 15 14 11 11 13 13 14 16 16 16 18 21 23 19 19 19
14 16 15 13 12 9 5 6 5 7 9 11 10 10 10 12 13 14 15 17 16 16 15 15 15 14 13 10 10 8 9 10 10 13 17 19 18 19 17 20 19 22 23
11 12 16 16 12 8 5 4 2 2 6 9 10 12 11 13 14 14 16 20 17 17 15 14 13 12 9 8 6 5 7 8 9 13 13 15 16 18 19 18 19 17 15
11 10 14 15 13 11 5 6 3 8 5 8 9 9 10 11 12 12 12 15 16 15 13 10 10 8 7 5 3 2 1 2 7 6 5 9 10 12 13 14 15 16 15
13 11 16 15 13 12 7 8 9 9 7 7 8 7 8 10 11 10 9 8 10 10 9 8 7 9 7 6 9 4 1 3 3 9 13 7 2 5 6 5 6 9 10
12 10 11 13 13 11 10 10 8 6 7 6 8 6 3 3 4 4 5 6 7 9 9 8 8 6 8 9 6 12 9 3 2 1 7 10 10 5 5 6 4 3 3
9 14 14 16 13 12 12 12 9 7 7 9 8 7 4 2 1 1 6 8 9 10 10 10 10 11 11 10 11 7 8 9 7 2 2 3 8 9 6 3 0 3 3
9 13 14 16 17 17 15 17 10 9 11 11 10 8 7 3 2 3 3 4 6 8 9 8 9 9 9 8 8 10 8 5 6 5 2 4 5 9 14 14 13 12 13

GFSSE_925_spd_060.txt.gz
Wind_Speed
13 18 19 19 18 18 16 17 18 20 22 25 25 24 22 17 16 15 15 14 13 12 11 9 9 11 12 12 13 14 14 15 16 16 15 16 15 14 15 15 14 13 13
19 18 18 19 18 18 18 18 18 20 20 21 22 21 17 16 15 15 15 15 14 13 11 10 10 11 12 12 12 14 14 15 16 14 15 16 14 14 13 13 13 14 13
22 20 19 18 19 18 19 19 19 19 18 19 19 17 16 15 14 14 14 13 13 13 13 13 12 12 12 12 13 14 15 16 16 13 12 16 14 15 13 13 12 13 13
24 22 21 19 18 17 18 19 19 18 18 18 17 17 16 14 14 13 13 12 12 13 14 13 13 12 12 14 13 14 15 14 14 12 13 16 12 14 13 14 13 13 13
23 22 20 19 17 17 17 18 19 18 17 17 16 16 14 14 12 11 11 11 12 12 12 13 13 12 13 14 13 15 14 13 12 14 15 15 12 13 13 13 13 13 13
22 22 22 19 17 17 17 18 18 17 16 14 14 14 13 14 13 10 9 10 9 11 11 11 12 12 13 13 13 15 15 14 12 11 11 12 12 12 12 11 12 13 11
24 20 20 21 17 16 17 17 17 17 16 15 13 13 13 13 10 9 9 9 9 9 10 10 11 13 13 13 14 13 11 10 9 9 9 10 11 10 11 10 11 11 12
23 21 17 15 17 15 15 15 15 16 17 16 15 13 12 11 10 9 8 9 7 7 10 10 10 12 14 15 14 12 9 7 5 9 10 10 9 9 12 10 11 10 11
19 20 17 16 13 13 14 14 16 15 15 15 15 13 11 11 9 8 8 7 8 8 8 10 11 11 13 15 14 13 11 7 5 6 11 9 8 10 11 11 10 10 11
16 14 15 14 16 12 13 13 14 16 15 15 14 13 13 11 9 8 9 8 7 8 8 9 10 12 12 12 13 13 12 9 7 7 11 12 9 10 11 10 10 10 10
14 14 13 13 13 15 14 13 13 14 15 14 14 13 12 13 12 10 10 10 8 8 7 8 10 11 12 12 13 14 13 10 7 4 9 13 11 9 11 11 11 12 11
15 13 13 13 13 15 16 14 13 14 14 13 13 14 15 14 14 12 11 10 8 8 7 7 8 10 10 12 12 12 13 13 10 7 6 12 13 11 10 11 13 13 13
17 15 16 16 14 14 16 16 15 15 16 16 16 16 16 15 15 14 13 12 11 9 9 8 7 8 9 11 13 14 14 14 13 11 7 9 14 14 11 11 13 14 14
19 18 16 16 13 11 15 19 14 15 17 18 17 17 17 18 17 16 15 13 13 12 11 10 9 8 8 9 11 12 14 15 14 14 12 10 12 16 15 12 13 14 15
18 17 11 10 13 18 12 15 14 17 19 20 17 17 19 20 19 19 17 15 14 14 13 12 11 10 8 9 10 11 12 13 14 14 14 10 11 15 16 15 13 14 15
16 14 11 7 4 9 13 16 23 21 20 20 16 19 19 20 20 21 19 18 14 14 13 11 9 9 8 9 11 13 12 13 14 14 14 15 12 12 15 15 15 15 15
17 14 11 5 5 8 16 12 21 27 26 20 18 19 23 26 26 19 19 22 19 16 13 12 10 10 11 11 13 15 15 15 14 14 14 15 15 15 16 18 16 18 15
11 14 14 9 9 11 14 16 18 22 24 24 26 23 21 15 19 15 15 16 18 15 14 14 13 13 15 17 16 16 16 15 15 14 14 15 16 15 18 18 18 18 16
7 9 12 15 11 11 12 11 13 16 19 21 17 19 20 20 18 18 19 18 17 16 16 16 15 16 17 16 17 16 16 16 15 14 14 14 15 15 15 17 20 17 19
3 11 10 13 8 7 7 8 10 10 12 9 12 13 13 18 16 15 14 15 17 16 16 16 18 18 20 19 13 13 12 13 13 15 16 18 19 18 17 18 17 20 20
7 11 13 12 12 11 8 6 4 2 3 4 10 10 10 10 12 13 14 16 18 20 20 18 17 19 20 12 7 11 6 6 8 12 15 14 14 15 17 16 16 17 18
9 10 14 16 15 11 6 4 3 6 4 5 6 8 11 9 10 13 14 15 19 22 20 20 19 16 12 10 6 3 1 2 4 4 3 6 9 10 13 15 15 15 15
11 11 14 17 17 15 8 5 7 7 6 4 5 5 5 8 10 12 13 14 15 18 21 19 18 17 10 11 12 4 2 3 2 5 8 6 2 3 5 6 7 9 11
14 12 13 16 15 14 10 7 5 4 3 1 2 3 3 3 3 6 9 8 6 10 10 13 13 12 13 14 11 15 7 4 2 2 4 8 6 4 4 4 3 2 2
14 13 13 14 15 14 13 11 6 3 3 3 4 4 4 4 3 3 5 5 6 8 10 11 12 13 14 12 13 6 11 10 5 3 3 2 8 5 3 1 3 5 6
13 15 13 14 14 14 14 14 8 4 8 6 8 7 7 5 3 2 4 6 6 8 10 11 11 13 13 12 11 12 10 5 6 5 2 3 6 8 12 11 11 13 14

GFSSE_925_spd_063.txt.gz
Wind_Speed
17 19 20 18 19 19 19 19 17 18 21 21 22 18 17 14 12 11 10 10 10 10 9 10 12 12 13 13 11 12 13 14 13 14 14 14 13 13 12 12 13 12 13
23 20 19 18 19 19 18 19 18 19 20 22 20 17 15 11 10 10 9 8 9 10 9 10 11 12 13 12 12 12 12 13 13 13 14 11 12 14 14 12 12 13 13
21 21 19 20 20 19 20 19 18 18 18 19 19 17 13 11 10 10 10 9 8 8 8 10 11 12 12 12 13 13 14 15 12 13 12 10 10 11 12 11 12 12 13
22 20 19 21 20 20 20 20 19 17 17 17 16 14 13 11 10 11 10 8 9 9 10 10 11 11 12 12 13 13 14 12 11 11 10 9 10 10 12 10 11 12 12
21 21 20 20 19 19 20 19 19 18 17 17 15 14 13 12 11 9 9 9 9 9 9 11 11 10 12 11 12 13 12 11 10 10 11 8 10 9 12 12 12 12 11
19 18 20 20 20 20 18 19 18 18 17 16 16 14 13 13 12 9 8 10 10 9 9 10 10 11 10 11 13 11 12 10 10 8 9 7 8 11 10 11 10 11 10
16 18 17 19 18 19 20 18 18 18 17 14 14 14 12 14 11 9 8 6 7 8 9 8 9 11 11 11 13 12 12 10 8 7 8 7 7 9 10 8 10 11 9
15 15 15 16 16 17 17 20 17 16 17 16 13 13 13 12 9 7 7 6 6 7 7 8 9 10 11 12 12 12 9 7 6 7 7 7 8 9 9 8 9 10 10
13 14 13 14 14 15 16 17 17 16 15 16 15 13 12 11 10 9 7 7 7 6 7 8 9 10 10 11 11 10 9 8 5 8 8 7 8 9 11 9 10 9 10
12 12 13 15 14 15 15 15 15 16 16 14 14 14 12 11 9 8 8 6 7 8 7 8 9 9 11 11 11 10 9 7 5 5 8 8 8 9 10 10 10 9 9
11 12 12 16 17 15 15 15 15 15 15 14 13 12 11 9 9 8 9 9 7 6 7 8 8 10 11 11 11 11 10 7 6 5 9 12 11 10 12 11 11 10 10
12 12 15 15 15 15 15 14 13 13 13 13 12 11 11 10 10 9 8 8 6 7 6 6 9 9 9 9 10 11 11 10 7 6 5 11 12 10 11 11 11 13 12
13 13 16 10 14 12 13 15 14 13 13 12 12 11 10 9 8 8 8 7 8 7 6 5 6 8 10 10 11 12 12 11 10 9 7 9 13 14 11 11 12 13 12
13 12 13 13 12 10 7 18 16 16 16 12 13 12 12 10 9 9 9 9 9 9 8 7 7 7 7 9 10 11 12 11 12 11 11 11 11 14 15 12 12 11 13
12 12 12 13 11 14 13 13 19 17 16 13 13 14 14 13 12 10 11 10 8 10 9 9 8 7 7 8 9 10 11 13 13 13 12 15 13 12 16 15 13 13 13
12 14 13 12 8 6 9 11 16 16 14 14 14 15 16 15 15 14 16 17 11 10 10 9 9 8 8 8 9 10 11 11 12 13 13 14 15 13 12 15 14 15 15
12 11 12 9 5 4 8 11 16 15 14 15 16 16 17 17 14 15 17 19 14 11 12 12 10 9 8 8 9 9 11 13 12 14 14 14 15 17 16 15 15 14 16
11 14 13 9 6 3 6 11 8 14 18 17 19 18 19 18 18 16 20 15 15 14 12 11 10 10 9 10 10 11 11 13 13 14 15 15 15 15 15 19 18 17 16
10 12 14 12 8 6 8 8 11 13 15 16 17 20 22 20 20 20 21 20 16 15 14 12 11 12 11 12 12 11 12 13 13 14 16 15 14 13 13 15 16 17 17
6 11 9 11 10 5 6 8 8 9 9 8 11 14 13 20 21 15 17 21 19 17 16 14 14 12 13 13 12 13 12 12 10 11 13 14 14 14 14 15 16 14 19
6 9 10 10 7 5 3 4 7 6 4 5 7 8 9 14 19 21 17 16 17 17 16 16 14 14 15 14 12 11 10 8 9 7 13 13 12 12 14 16 15 11 12
8 9 11 11 9 8 5 5 3 3 2 5 9 10 9 8 13 15 15 16 19 15 17 17 16 13 11 14 8 8 3 4 4 1 3 5 7 8 10 10 10 12 10
10 9 11 13 12 12 8 5 5 3 3 5 7 9 10 14 12 11 13 14 14 16 19 19 17 17 15 12 15 6 2 4 4 1 3 2 1 3 4 4 4 7 9
8 10 11 13 12 13 11 8 6 4 4 4 7 7 8 10 11 12 10 12 13 15 15 17 17 18 17 15 10 14 7 1 3 3 3 4 3 3 2 2 1 1 1
7 10 10 10 13 14 12 10 7 5 4 6 5 7 7 7 5 3 1 6 7 6 7 11 11 8 11 13 11 5 9 8 5 4 3 4 4 4 2 1 3 4 4
9 10 9 10 12 14 13 12 10 7 5 5 6 4 5 5 3 3 5 8 7 8 9 9 11 11 11 11 11 12 10 6 10 10 3 3 5 5 6 6 7 7 9

GFSSE_925_spd_069.txt.gz
Wind_Speed
18 17 18 15 15 15 15 15 13 14 13 14 15 13 11 11 11 11 10 9 8 7 8 8 8 8 9 9 9 10 11 12 13 13 12 13 13 12 13 9 11 10 11
19 16 18 16 15 14 13 13 14 14 14 15 14 12 11 10 11 10 10 9 8 7 7 9 8 8 9 8 9 11 10 12 11 12 12 12 11 11 12 9 15 11 11
17 16 16 17 15 14 13 13 14 16 15 15 13 12 10 9 9 10 10 10 9 7 7 8 8 9 8 8 8 11 10 11 11 12 13 15 10 10 10 10 11 12 11
17 15 15 17 16 15 13 13 14 14 15 14 13 11 8 9 9 10 10 9 8 8 8 9 8 8 8 8 10 10 8 9 10 6 4 7 10 9 10 9 10 10 11
15 15 18 17 15 15 15 14 14 14 14 13 12 10 8 8 10 9 9 9 10 9 9 9 8 8 9 9 11 10 8 9 6 3 6 11 7 7 8 9 9 10 7
16 22 17 17 16 15 15 15 15 14 14 12 11 9 9 8 9 9 8 9 9 10 10 9 8 9 9 10 9 8 8 10 5 4 7 6 13 8 8 7 7 7 6
20 19 16 15 16 15 15 15 15 14 13 10 10 11 9 8 7 7 7 8 9 9 9 8 8 8 9 9 9 8 8 6 4 7 8 3 8 6 7 5 4 5 5
13 16 14 16 15 15 14 15 15 15 14 13 10 9 9 10 7 7 6 7 8 8 9 8 9 9 9 10 9 8 8 6 4 6 3 7 4 6 5 5 5 4 4
11 14 14 13 13 13 14 14 14 13 12 11 10 8 9 9 7 6 6 6 8 8 8 8 9 10 9 10 8 7 5 7 7 5 5 7 6 7 7 4 6 6 4
9 14 13 14 11 11 12 14 14 13 12 11 10 10 10 9 7 7 7 8 7 7 9 9 9 10 10 10 9 6 5 8 9 8 5 6 2 4 8 5 5 4 5
10 12 14 15 14 11 11 14 14 13 13 12 11 12 11 9 9 9 7 9 7 8 8 9 10 10 10 11 11 9 8 8 11 8 5 10 4 5 8 7 6 6 5
12 8 11 11 11 8 10 11 15 13 13 13 13 13 12 10 11 3 7 8 7 8 9 10 10 11 11 11 12 11 10 11 13 10 8 6 3 6 6 8 7 7 7
11 9 10 9 15 15 12 9 11 13 13 13 13 12 11 9 9 10 11 8 9 9 9 9 10 11 12 13 13 12 10 10 12 7 5 5 5 8 7 8 9 8 9
10 10 10 11 12 11 11 8 12 12 11 12 13 13 12 11 11 11 11 7 10 9 7 10 10 13 13 13 8 15 10 10 9 12 10 8 6 7 9 9 10 10 10
9 8 11 10 9 8 11 11 10 12 12 12 13 13 12 11 10 10 11 10 11 10 11 7 9 7 10 10 11 10 11 11 12 10 15 16 8 9 10 11 13 12 13
10 10 12 10 10 8 8 11 12 9 7 14 12 16 14 14 14 12 12 11 11 8 8 9 10 9 9 12 11 11 13 13 13 12 12 12 11 10 14 13 12 15 15
11 9 12 10 9 9 7 9 11 14 10 10 12 7 12 14 11 14 13 13 11 10 7 7 6 7 8 10 8 7 11 12 12 13 13 15 11 13 13 15 13 15 16
9 9 10 10 10 10 10 9 8 10 12 12 13 14 11 13 12 13 11 11 12 10 10 10 8 11 13 13 11 11 10 11 13 13 14 14 14 9 16 12 14 17 17
9 10 11 11 10 10 10 10 8 7 10 14 14 14 15 16 17 14 13 13 10 11 14 12 11 11 12 11 9 14 13 13 15 16 16 16 15 16 11 15 17 15 17
9 10 12 12 11 10 8 8 7 8 9 10 14 18 16 17 18 19 19 15 16 12 14 16 12 14 16 15 13 14 7 9 15 16 15 16 14 11 19 19 18 15 13
9 11 13 13 13 11 9 9 7 6 4 7 10 14 17 19 20 19 20 14 12 14 15 9 10 12 12 13 11 13 14 15 17 18 13 12 7 10 14 17 17 13 15
11 11 11 12 13 11 8 6 5 3 1 4 3 4 10 14 15 16 15 19 11 12 15 15 15 15 17 17 8 6 7 7 11 12 12 10 8 9 12 14 11 12 15
13 13 12 12 13 12 8 7 6 4 5 4 4 3 3 5 9 13 14 17 17 15 18 16 16 17 17 13 10 8 2 3 1 7 8 5 4 7 8 9 8 7 9
13 11 11 12 13 12 11 9 5 4 3 6 1 2 3 5 6 7 9 11 13 15 16 21 20 21 18 15 9 12 10 4 1 2 5 3 1 1 3 2 6 6 7
14 12 12 12 14 12 11 9 7 3 1 1 3 4 3 5 6 11 8 10 13 17 15 15 16 16 19 15 14 8 11 16 20 5 4 4 2 1 1 4 6 4 3
15 13 12 13 14 12 11 10 7 3 2 2 3 5 6 7 8 9 11 9 9 10 12 9 9 11 11 12 13 15 14 9 12 12 7 6 4 1 2 4 3 3 5

GFSSE_925_spd_072.txt.gz
Wind_Speed
23 23 21 21 20 19 17 14 12 13 14 14 13 12 10 10 11 10 10 10 10 9 10 11 10 10 12 12 11 11 12 14 15 15 16 16 14 15 12 9 14 13 14
25 21 21 20 19 20 18 14 13 12 13 14 13 11 10 9 8 8 8 9 9 10 11 12 10 11 11 11 11 12 11 12 12 14 16 15 14 13 14 15 13 14 13
24 21 18 19 18 17 16 15 14 13 12 13 12 11 9 8 8 8 8 8 8 9 10 11 11 11 11 10 11 11 10 11 11 13 16 17 12 11 12 13 14 13 12
22 20 17 17 16 16 16 16 15 14 13 12 12 11 8 8 9 8 7 8 7 8 10 10 11 10 10 10 12 10 11 11 10 10 9 11 13 12 11 12 12 11 12
22 19 18 18 15 15 15 15 16 16 15 12 11 10 8 8 9 8 7 7 8 9 10 11 10 11 11 11 11 10 12 9 5 3 8 14 15 12 11 13 11 14 9
14 24 18 19 16 14 14 14 15 15 15 13 9 7 9 9 10 8 7 8 8 9 10 9 11 12 11 10 10 9 10 6 3 8 8 15 11 12 12 8 12 9 8
23 18 20 19 17 15 12 13 12 13 12 12 10 7 8 10 10 9 9 8 8 9 9 9 11 11 10 9 8 8 9 5 0 7 12 5 8 11 10 10 9 7 8
30 23 19 16 16 14 13 11 11 11 11 10 11 9 6 9 9 9 9 8 8 9 9 8 9 11 10 9 8 7 8 3 5 5 12 7 7 8 9 8 7 7 7
23 25 24 17 12 11 11 11 11 10 10 10 10 10 9 9 8 9 9 9 8 8 8 8 9 10 10 10 9 8 7 4 5 1 8 9 6 7 8 8 8 8 6
15 20 24 12 9 9 11 12 11 11 10 9 10 9 11 10 8 8 9 9 8 8 8 8 9 9 9 10 9 7 6 6 2 3 6 11 8 7 8 7 8 8 8
12 34 31 5 8 10 10 10 12 12 11 10 10 10 11 10 11 11 8 10 9 9 9 9 9 9 10 9 10 7 5 5 8 4 4 11 7 7 8 8 8 8 7
16 24 24 18 19 13 14 12 13 12 13 13 12 13 13 12 11 10 12 11 10 10 10 10 10 10 10 10 12 11 9 6 6 5 9 11 9 7 6 9 8 8 7
23 21 17 20 17 14 16 11 14 16 15 15 15 14 13 12 11 11 12 12 11 11 9 11 12 12 13 13 14 12 7 11 12 5 13 7 7 5 5 7 7 7 8
23 22 21 17 18 11 10 11 11 15 16 15 16 15 15 12 12 10 13 11 12 12 12 13 15 11 16 14 8 15 16 15 10 12 8 10 9 6 7 8 8 9 9
11 21 17 13 13 11 16 11 11 14 13 13 15 16 14 13 11 12 13 12 14 13 12 13 13 11 11 12 10 13 13 8 10 9 11 10 14 11 9 9 11 12 12
11 20 17 11 10 11 9 11 13 12 14 15 15 17 15 13 13 11 12 13 14 12 12 11 12 11 10 12 11 9 11 10 10 10 9 19 15 15 11 12 12 13 15
14 18 17 12 11 9 9 9 14 9 12 14 5 10 15 13 13 13 13 16 16 15 11 9 8 10 9 9 10 9 10 10 11 12 12 10 16 15 13 12 15 14 16
16 14 16 14 12 9 9 9 11 11 13 10 9 10 11 12 11 13 15 15 14 9 8 10 9 10 9 9 11 9 11 11 12 15 12 16 15 11 13 12 17 14 15
16 13 13 13 12 12 10 10 9 9 11 12 12 14 15 16 15 15 14 10 5 6 11 14 11 9 10 13 11 13 13 13 14 14 18 21 17 20 17 14 14 15 13
17 15 15 14 13 12 10 10 9 10 11 12 14 12 14 18 18 20 15 14 16 12 5 14 13 13 14 11 11 12 13 13 15 16 17 17 8 12 15 14 19 18 18
16 18 19 16 17 13 10 12 12 13 12 10 11 14 17 20 19 20 21 18 15 19 19 11 12 14 14 10 6 14 13 9 13 15 17 14 12 18 24 17 15 17 18
16 17 18 18 16 16 14 12 7 4 3 5 5 7 11 15 22 20 21 18 17 13 17 18 11 10 11 13 6 3 2 7 10 15 14 13 12 4 12 10 12 10 10
18 19 18 18 18 16 11 11 8 6 5 6 6 4 3 5 12 19 19 17 21 17 13 15 14 16 18 16 11 6 2 4 3 5 5 6 4 4 5 6 6 7 8
19 18 19 18 18 15 12 12 14 8 8 5 4 5 3 4 4 8 14 14 18 16 15 14 17 20 19 19 14 16 12 3 0 3 5 15 3 2 3 3 4 6 7
19 19 18 18 17 15 14 9 8 6 5 5 4 5 4 5 5 7 8 10 10 13 11 12 16 18 18 21 20 8 11 9 5 3 2 6 3 4 4 4 4 6 4
17 19 18 17 16 13 14 12 8 4 3 2 4 5 5 5 5 9 9 8 8 8 8 8 9 7 8 12 14 13 10 5 7 7 6 6 5 2 4 5 3 6 8

GFSSE_925_spd_075.txt.gz
Wind_Speed
22 25 24 25 23 21 19 17 16 15 15 14 13 13 14 14 14 13 13 13 13 12 12 12 13 14 14 13 15 14 15 16 17 18 20 21 19 16 14 17 16 17 16
32 25 23 25 24 21 18 18 16 16 15 14 13 12 13 13 11 11 11 12 12 13 12 11 13 13 13 14 15 15 14 15 16 18 19 18 16 15 16 14 16 18 17
31 28 23 21 21 20 18 18 17 16 16 14 12 11 12 12 10 10 10 11 11 12 12 12 12 13 12 13 16 14 13 15 16 17 17 17 16 15 17 16 15 16 16
32 28 25 20 18 17 16 17 18 16 17 15 12 10 10 11 11 10 10 9 10 10 11 12 12 12 12 14 14 14 15 15 15 15 15 15 15 15 14 15 15 15 15
26 26 25 22 19 15 14 15 16 16 16 14 12 10 9 9 10 10 9 8 9 11 10 11 11 12 13 13 14 13 12 13 10 7 8 12 15 14 15 14 15 14 11
27 23 23 21 19 18 14 14 15 15 15 14 12 9 8 9 11 10 10 9 10 10 11 9 10 11 12 13 13 12 10 9 9 6 22 15 14 16 14 12 12 13 12
24 21 19 20 19 18 18 13 13 14 14 13 12 12 8 8 10 9 11 9 10 10 10 10 10 10 10 11 11 10 7 5 8 12 19 13 11 15 14 13 11 10 11
20 14 17 18 19 19 19 18 13 13 13 12 9 11 11 9 9 9 10 10 9 10 10 10 10 10 10 10 11 10 7 4 7 8 14 9 11 13 13 12 10 10 10
36 6 14 15 18 17 17 16 13 11 11 11 10 11 12 12 10 9 9 10 10 9 10 9 9 10 10 9 10 9 6 2 5 9 10 11 11 13 12 12 10 9 9
49 6 21 17 12 15 16 15 15 12 11 10 10 9 11 12 11 10 9 9 9 10 9 10 10 10 10 9 9 8 6 4 3 5 6 12 12 12 12 12 12 10 9
40 11 26 18 16 13 13 15 15 14 12 11 11 10 12 12 10 10 10 10 9 10 9 9 10 11 11 11 9 7 6 6 2 4 9 15 10 10 12 11 11 11 11
33 19 16 20 19 17 15 16 17 16 16 14 12 12 13 12 10 11 11 13 10 11 11 11 12 10 10 11 10 8 7 6 2 4 6 13 8 9 10 9 10 10 10
27 23 18 21 20 16 17 16 18 15 14 13 13 12 11 12 11 11 13 13 13 13 13 14 13 13 12 12 9 9 7 9 4 7 8 11 9 10 10 8 9 9 10
28 23 19 13 17 15 15 16 17 19 19 16 14 14 13 11 15 16 15 13 13 15 13 13 12 14 13 11 12 17 13 8 10 12 11 10 9 8 10 8 8 10 11
27 23 21 17 17 16 16 15 12 15 17 15 17 17 16 17 15 16 17 16 14 14 15 17 13 12 12 13 17 11 17 15 9 16 15 9 7 9 9 10 10 10 11
29 26 22 17 12 14 13 13 13 13 15 14 13 17 16 16 16 16 16 19 18 18 17 14 17 14 13 14 11 10 11 13 10 4 12 11 15 9 12 10 11 10 11
31 27 23 18 14 14 12 13 14 12 13 12 14 15 17 16 17 17 17 19 20 22 19 17 15 13 14 11 11 10 12 10 8 8 6 9 14 13 12 14 11 11 11
29 27 22 19 16 12 12 12 14 15 15 16 15 18 18 18 20 19 20 10 15 19 17 13 14 14 10 10 11 11 12 8 8 9 10 14 13 15 15 17 14 12 11
27 25 22 21 18 12 12 10 11 12 15 15 15 15 17 19 19 20 19 8 11 18 16 15 13 13 12 13 14 13 13 11 13 12 13 15 18 18 20 17 16 17 18
24 25 25 22 16 12 12 12 11 9 12 14 11 13 19 21 22 22 19 13 19 22 18 12 9 10 11 11 12 12 13 12 14 11 13 12 13 12 18 13 12 21 18
23 23 22 19 17 17 15 14 12 13 14 14 14 13 16 20 22 23 23 21 20 14 11 9 6 12 15 12 9 11 9 8 13 15 13 14 13 12 22 17 13 15 17
26 23 21 20 22 20 15 16 11 12 11 11 11 11 12 15 21 23 21 20 20 15 12 12 11 10 14 13 5 3 2 6 12 7 9 6 2 8 7 10 9 10 11
27 26 25 22 22 19 16 14 13 9 6 7 10 8 6 6 12 21 23 19 18 17 15 11 12 13 15 14 11 6 1 4 1 3 2 2 4 3 1 2 3 5 6
29 25 24 22 20 20 16 21 15 12 8 8 7 8 4 2 3 10 20 17 16 19 17 13 12 14 13 15 13 16 16 3 3 1 1 5 3 4 7 6 3 3 6
30 28 25 24 20 21 18 17 14 11 9 8 9 7 6 4 5 5 12 17 16 17 17 14 11 13 17 20 22 20 13 12 8 3 2 1 2 6 7 6 5 5 4
29 28 28 25 23 21 20 18 12 15 11 12 10 9 8 5 4 9 8 11 10 11 13 12 10 8 7 10 13 17 17 7 8 5 2 3 8 5 5 3 1 1 2